This is the latest recevied weather packets stored in our database for station/object SQ5LTL-2. If no packets are shown the sender has not sent any weather packets the latest 10 day(s).
| Time | Temp. | Humidity | Pressure | Rain* | Wind** | Luminosity | Snow |
|---|---|---|---|---|---|---|---|
| 1777842034 | 11.11° C | 67% | 1016.2 hPa | 0 mm | - | 0 W/m² | - |
| 1777841745 | 10.56° C | 70% | 1016.3 hPa | 0 mm | - | 0 W/m² | - |
| 1777840527 | 10° C | 74% | 1016.3 hPa | 0 mm | - | 0 W/m² | - |
| 1777839922 | 10° C | 74% | 1016.3 hPa | 0 mm | - | 0 W/m² | - |
| 1777839622 | 10° C | 73% | 1016.3 hPa | 0 mm | - | 0 W/m² | - |
| 1777839333 | 10° C | 73% | 1016.3 hPa | 0 mm | - | 0 W/m² | - |
| 1777838134 | 10.56° C | 73% | 1016.4 hPa | 0 mm | - | 0 W/m² | - |
| 1777836928 | 11.11° C | 71% | 1016.3 hPa | 0 mm | - | 0 W/m² | - |
| 1777835724 | 12.22° C | 68% | 1016.3 hPa | 0 mm | - | 0 W/m² | - |
| 1777835421 | 12.22° C | 67% | 1016.3 hPa | 0 mm | - | 0 W/m² | - |
| 1777834236 | 13.89° C | 66% | 1016.2 hPa | 0 mm | - | 0 W/m² | - |
| 1777833934 | 13.89° C | 64% | 1016.2 hPa | 0 mm | - | 0 W/m² | - |
| 1777833331 | 14.44° C | 58% | 1016.1 hPa | 0 mm | - | 0 W/m² | - |
| 1777832428 | 14.44° C | 56% | 1016.1 hPa | 0 mm | - | 0 W/m² | - |
| 1777831825 | 15.56° C | 52% | 1015.9 hPa | 0 mm | - | 1 W/m² | - |
| 1777829132 | 21.11° C | 37% | 1015.9 hPa | 0 mm | - | 14 W/m² | - |
| 1777828226 | 22.22° C | 33% | 1015.8 hPa | 0 mm | - | 19 W/m² | - |
| 1777827623 | 22.78° C | 32% | 1015.7 hPa | 0 mm | - | 23 W/m² | - |
| 1777825836 | 23.89° C | 30% | 1015.8 hPa | 0 mm | - | 32 W/m² | - |
| 1777825233 | 24.44° C | 30% | 1015.9 hPa | 0 mm | - | 39 W/m² | - |
| 1777824629 | 24.44° C | 29% | 1015.9 hPa | 0 mm | - | 44 W/m² | - |
| 1777821633 | 25.56° C | 27% | 1016.3 hPa | 0 mm | - | 170 W/m² | - |
| 1777821032 | 25.56° C | 27% | 1016.3 hPa | 0 mm | - | 207 W/m² | - |
| 1777818017 | 25° C | 28% | 1016.9 hPa | 0 mm | - | 333 W/m² | - |
| 1777817434 | 25.56° C | 27% | 1017.1 hPa | 0 mm | - | 357 W/m² | - |
* Rain latest hour (hover to see other rain measurements)
** Current wind speed in m/s (hover to see current wind gust speed)